TimeEST,TemperatureF,Dew PointF,Humidity,Sea Level PressureIn,VisibilityMPH,Wind Direction,Wind SpeedMPH,Gust SpeedMPH,PrecipitationIn,Events,Conditions,WindDirDegrees,DateUTC
12:53 AM,77.0,73.9,90,30.01,10.0,East,8.1,-,N/A,,Mostly Cloudy,100,2012-12-10 05:53:00
1:27 AM,77.0,73.4,89,30.00,10.0,East,6.9,-,N/A,,Scattered Clouds,100,2012-12-10 06:27:00
1:53 AM,77.0,73.0,88,30.00,10.0,East,6.9,-,N/A,,Partly Cloudy,100,2012-12-10 06:53:00
2:09 AM,77.0,73.4,89,30.00,10.0,ESE,5.8,-,N/A,,Mostly Cloudy,120,2012-12-10 07:09:00
2:22 AM,77.0,73.4,89,29.99,10.0,ESE,6.9,-,N/A,,Mostly Cloudy,120,2012-12-10 07:22:00
2:53 AM,77.0,73.0,88,29.98,10.0,ESE,6.9,-,N/A,,Scattered Clouds,120,2012-12-10 07:53:00
3:53 AM,77.0,73.0,88,29.96,10.0,ESE,6.9,-,N/A,,Clear,120,2012-12-10 08:53:00
4:53 AM,77.0,73.9,90,29.95,10.0,ESE,6.9,-,N/A,,Clear,110,2012-12-10 09:53:00
5:53 AM,77.0,73.9,90,29.96,10.0,ESE,6.9,-,N/A,,Partly Cloudy,120,2012-12-10 10:53:00
6:53 AM,77.0,73.9,90,29.98,10.0,SE,6.9,-,N/A,,Mostly Cloudy,130,2012-12-10 11:53:00
7:53 AM,78.1,75.0,90,29.98,10.0,SE,9.2,-,N/A,,Mostly Cloudy,130,2012-12-10 12:53:00
8:53 AM,79.0,75.0,88,29.99,10.0,SSE,9.2,-,N/A,,Mostly Cloudy,150,2012-12-10 13:53:00
9:53 AM,80.1,75.0,85,30.00,10.0,SE,11.5,-,N/A,,Mostly Cloudy,140,2012-12-10 14:53:00
10:53 AM,82.0,73.9,76,30.00,10.0,SSE,11.5,-,N/A,,Mostly Cloudy,150,2012-12-10 15:53:00
11:53 AM,84.0,75.0,74,29.98,10.0,SSE,11.5,-,N/A,,Mostly Cloudy,150,2012-12-10 16:53:00
12:53 PM,82.9,73.9,74,29.94,10.0,SSE,11.5,-,N/A,,Scattered Clouds,150,2012-12-10 17:53:00
1:53 PM,82.9,73.9,74,29.94,10.0,SSE,10.4,-,N/A,,Scattered Clouds,160,2012-12-10 18:53:00
2:53 PM,82.9,73.9,74,29.92,10.0,SSE,9.2,-,N/A,,Scattered Clouds,150,2012-12-10 19:53:00
3:53 PM,81.0,73.9,79,29.91,10.0,SE,10.4,-,N/A,,Scattered Clouds,140,2012-12-10 20:53:00
4:53 PM,80.1,73.9,81,29.90,10.0,SE,12.7,-,N/A,,Scattered Clouds,130,2012-12-10 21:53:00
5:53 PM,79.0,73.9,84,29.91,10.0,ESE,6.9,-,N/A,,Scattered Clouds,120,2012-12-10 22:53:00
6:53 PM,79.0,75.0,88,29.93,10.0,ESE,8.1,-,N/A,,Scattered Clouds,120,2012-12-10 23:53:00
7:53 PM,78.1,75.0,90,29.94,10.0,SE,5.8,-,N/A,,Scattered Clouds,130,2012-12-11 00:53:00
8:53 PM,78.1,75.0,90,29.96,10.0,ESE,3.5,-,N/A,,Mostly Cloudy,110,2012-12-11 01:53:00
9:53 PM,78.1,75.0,90,29.97,10.0,SE,6.9,-,N/A,,Mostly Cloudy,130,2012-12-11 02:53:00
10:53 PM,79.0,75.0,88,29.95,10.0,SE,9.2,-,N/A,,Clear,140,2012-12-11 03:53:00
11:17 PM,78.8,75.2,89,29.97,10.0,SSE,8.1,-,N/A,,Scattered Clouds,150,2012-12-11 04:17:00
11:26 PM,78.8,75.2,89,29.97,10.0,SSE,8.1,-,N/A,,Mostly Cloudy,150,2012-12-11 04:26:00
11:53 PM,79.0,75.0,88,29.97,10.0,SSE,6.9,-,N/A,,Mostly Cloudy,150,2012-12-11 04:53:00